Time,TemperatureF,DewpointF,PressureIn,WindDirection,WindDirectionDegrees,WindSpeedMPH,WindSpeedGustMPH,Humidity,HourlyPrecipIn,Conditions,Clouds,dailyrainin,SoftwareType,DateUTC
2013-06-18 00:01:00,62.8,51.7,30.14,SSW,198,0.0,0.0,67,0.00,-RA,OVC,0.00,WeatherDisplay:10.37,2013-06-18 06:01:00,
2013-06-18 00:06:00,62.5,51.4,30.14,SSW,198,0.0,0.0,67,0.00,-RA,OVC,0.00,WeatherDisplay:10.37,2013-06-18 06:06:00,
2013-06-18 00:11:00,62.4,51.7,30.14,SSW,198,0.0,0.0,68,0.00,-RA,OVC,0.00,WeatherDisplay:10.37,2013-06-18 06:11:00,
2013-06-18 00:16:00,62.3,51.6,30.14,SSW,198,3.5,3.5,68,0.00,-RA,OVC,0.00,WeatherDisplay:10.37,2013-06-18 06:16:00,
2013-06-18 00:21:00,62.3,51.6,30.14,SSW,198,3.5,3.5,68,0.00,-RA,OVC,0.00,WeatherDisplay:10.37,2013-06-18 06:21:00,
2013-06-18 00:26:00,62.4,51.7,30.14,SSW,198,1.1,1.1,68,0.00,-RA,OVC,0.00,WeatherDisplay:10.37,2013-06-18 06:26:00,
2013-06-18 00:31:00,62.4,51.7,30.14,SSW,198,1.0,1.0,68,0.00,-RA,OVC,0.00,WeatherDisplay:10.37,2013-06-18 06:31:00,
2013-06-18 00:36:00,62.3,51.6,30.14,SSW,198,0.0,0.0,68,0.00,-RA,OVC,0.00,WeatherDisplay:10.37,2013-06-18 06:36:00,
2013-06-18 00:41:00,62.1,51.4,30.14,SSW,198,3.5,3.5,68,0.00,-RA,OVC,0.00,WeatherDisplay:10.37,2013-06-18 06:41:00,
2013-06-18 00:46:00,62.0,51.3,30.14,SSW,198,0.0,0.0,68,0.00,-RA,OVC,0.00,WeatherDisplay:10.37,2013-06-18 06:46:00,
2013-06-18 00:51:00,61.7,51.4,30.14,SSW,198,0.0,0.1,69,0.00,-RA,OVC,0.00,WeatherDisplay:10.37,2013-06-18 06:51:00,
2013-06-18 00:56:00,61.4,51.1,30.15,SSW,198,0.0,0.0,69,0.00,-RA,OVC,0.00,WeatherDisplay:10.37,2013-06-18 06:56:00,
2013-06-18 01:01:00,61.2,51.3,30.15,SSW,198,0.0,0.0,70,0.00,-RA,OVC,0.00,WeatherDisplay:10.37,2013-06-18 07:01:00,
2013-06-18 01:06:00,61.1,51.2,30.15,SE,142,3.5,0.0,70,0.00,-RA,OVC,0.00,WeatherDisplay:10.37,2013-06-18 07:06:00,
2013-06-18 01:11:00,61.1,51.2,30.15,SE,142,0.0,0.0,70,0.00,-RA,OVC,0.00,WeatherDisplay:10.37,2013-06-18 07:11:00,
2013-06-18 01:16:00,61.0,51.5,30.15,SE,142,0.0,0.0,71,0.00,-RA,OVC,0.00,WeatherDisplay:10.37,2013-06-18 07:16:00,
2013-06-18 01:21:00,60.9,51.4,30.15,SE,142,0.0,0.0,71,0.00,-RA,OVC,0.00,WeatherDisplay:10.37,2013-06-18 07:21:00,
2013-06-18 01:26:00,60.7,51.2,30.15,SE,142,0.0,0.0,71,0.00,-RA,OVC,0.00,WeatherDisplay:10.37,2013-06-18 07:26:00,
2013-06-18 01:31:00,60.5,51.4,30.15,SE,142,0.0,0.0,72,0.00,-RA,OVC,0.00,WeatherDisplay:10.37,2013-06-18 07:31:00,
2013-06-18 01:36:00,60.3,51.2,30.15,SE,142,0.0,0.0,72,0.00,-RA,OVC,0.00,WeatherDisplay:10.37,2013-06-18 07:36:00,
2013-06-18 01:41:00,60.2,51.5,30.15,SE,142,0.0,0.0,73,0.00,-RA,OVC,0.00,WeatherDisplay:10.37,2013-06-18 07:41:00,
2013-06-18 01:46:00,60.0,51.3,30.15,SE,142,0.0,0.0,73,0.00,-RA,OVC,0.00,WeatherDisplay:10.37,2013-06-18 07:46:00,
2013-06-18 01:51:00,59.9,51.2,30.15,SE,142,0.0,0.0,73,0.00,-RA,OVC,0.00,WeatherDisplay:10.37,2013-06-18 07:51:00,
2013-06-18 01:56:00,59.8,51.1,30.15,SE,142,0.0,0.0,73,0.00,-RA,OVC,0.00,WeatherDisplay:10.37,2013-06-18 07:56:00,
2013-06-18 02:01:00,59.7,51.0,30.15,SE,142,0.0,0.0,73,0.00,-RA,OVC,0.00,WeatherDisplay:10.37,2013-06-18 08:01:00,
2013-06-18 02:06:00,59.7,51.0,30.15,SE,142,0.0,0.0,73,0.00,-RA,OVC,0.00,WeatherDisplay:10.37,2013-06-18 08:06:00,
2013-06-18 02:11:00,59.7,50.7,30.15,SE,144,2.3,2.3,72,0.00,-RA,OVC,0.00,WeatherDisplay:10.37,2013-06-18 08:11:00,
2013-06-18 02:16:00,59.8,50.8,30.15,SE,144,1.1,0.0,72,0.00,-RA,OVC,0.00,WeatherDisplay:10.37,2013-06-18 08:16:00,
2013-06-18 02:21:00,60.2,50.8,30.15,SSE,167,1.1,1.2,71,0.00,-RA,OVC,0.00,WeatherDisplay:10.37,2013-06-18 08:21:00,
2013-06-18 02:26:00,60.6,51.1,30.15,SSW,194,3.5,3.5,71,0.00,-RA,OVC,0.00,WeatherDisplay:10.37,2013-06-18 08:26:00,
2013-06-18 02:31:00,60.9,51.4,30.15,South,190,4.6,4.6,71,0.00,-RA,OVC,0.00,WeatherDisplay:10.37,2013-06-18 08:31:00,
2013-06-18 02:36:00,61.0,51.5,30.16,South,175,3.5,3.5,71,0.00,-RA,OVC,0.00,WeatherDisplay:10.37,2013-06-18 08:36:00,
2013-06-18 02:41:00,61.0,51.5,30.16,South,171,3.5,3.5,71,0.00,-RA,OVC,0.00,WeatherDisplay:10.37,2013-06-18 08:41:00,
2013-06-18 02:46:00,60.9,51.4,30.16,SSE,167,2.3,2.3,71,0.00,-RA,OVC,0.00,WeatherDisplay:10.37,2013-06-18 08:46:00,
2013-06-18 02:51:00,60.8,51.7,30.16,SSE,168,1.1,1.1,72,0.00,-RA,OVC,0.00,WeatherDisplay:10.37,2013-06-18 08:51:00,
2013-06-18 02:56:00,60.5,51.4,30.16,SSE,168,0.0,0.0,72,0.00,-RA,OVC,0.00,WeatherDisplay:10.37,2013-06-18 08:56:00,
2013-06-18 03:01:00,60.3,51.6,30.16,SSE,168,3.5,3.5,73,0.00,-RA,OVC,0.00,WeatherDisplay:10.37,2013-06-18 09:01:00,
2013-06-18 03:06:00,60.0,51.7,30.16,South,170,3.5,3.5,74,0.00,-RA,OVC,0.00,WeatherDisplay:10.37,2013-06-18 09:06:00,
2013-06-18 03:11:00,59.8,51.5,30.16,South,171,2.3,2.3,74,0.00,-RA,OVC,0.00,WeatherDisplay:10.37,2013-06-18 09:11:00,
2013-06-18 03:16:00,59.5,51.2,30.16,South,171,0.0,0.3,74,0.00,-RA,OVC,0.00,WeatherDisplay:10.37,2013-06-18 09:16:00,
2013-06-18 03:21:00,59.3,51.4,30.16,South,171,0.0,0.0,75,0.00,-RA,OVC,0.00,WeatherDisplay:10.37,2013-06-18 09:21:00,
2013-06-18 03:26:00,59.1,51.2,30.16,South,172,1.1,0.0,75,0.00,-RA,OVC,0.00,WeatherDisplay:10.37,2013-06-18 09:26:00,
2013-06-18 03:31:00,58.9,51.7,30.16,SSW,198,5.8,5.8,77,0.00,-RA,OVC,0.00,WeatherDisplay:10.37,2013-06-18 09:31:00,
2013-06-18 03:36:00,58.7,51.5,30.16,SSW,198,0.0,0.0,77,0.00,-RA,OVC,0.00,WeatherDisplay:10.37,2013-06-18 09:36:00,
2013-06-18 03:41:00,58.6,51.8,30.16,SSW,198,2.3,2.3,78,0.00,-RA,OVC,0.00,WeatherDisplay:10.37,2013-06-18 09:41:00,
2013-06-18 03:46:00,58.4,51.9,30.16,SSW,198,1.1,1.1,79,0.00,-RA,OVC,0.00,WeatherDisplay:10.37,2013-06-18 09:46:00,
2013-06-18 03:51:00,58.2,52.1,30.16,SSW,198,1.1,0.0,80,0.00,-RA,OVC,0.00,WeatherDisplay:10.37,2013-06-18 09:51:00,
2013-06-18 03:56:00,57.9,52.1,30.16,SSW,198,1.1,1.1,81,0.00,-RA,OVC,0.00,WeatherDisplay:10.37,2013-06-18 09:56:00,
2013-06-18 04:01:00,57.8,52.0,30.16,SSW,198,2.3,2.3,81,0.00,-RA,OVC,0.00,WeatherDisplay:10.37,2013-06-18 10:01:00,
2013-06-18 04:06:00,57.6,52.1,30.16,SSW,198,0.0,0.0,82,0.00,-RA,OVC,0.00,WeatherDisplay:10.37,2013-06-18 10:06:00,
2013-06-18 04:11:00,57.4,51.9,30.16,SSW,198,0.0,0.0,82,0.00,-RA,OVC,0.00,WeatherDisplay:10.37,2013-06-18 10:11:00,
2013-06-18 04:16:00,57.2,52.1,30.16,SSW,198,1.1,1.1,83,0.00,-RA,OVC,0.00,WeatherDisplay:10.37,2013-06-18 10:16:00,
2013-06-18 04:21:00,57.1,52.0,30.16,SSW,198,0.0,0.0,83,0.00,-RA,OVC,0.00,WeatherDisplay:10.37,2013-06-18 10:21:00,
2013-06-18 04:26:00,57.0,51.9,30.16,SSW,198,0.0,0.0,83,0.00,-RA,OVC,0.00,WeatherDisplay:10.37,2013-06-18 10:26:00,
2013-06-18 04:31:00,56.8,51.7,30.16,SSW,198,0.0,0.0,83,0.00,-RA,OVC,0.00,WeatherDisplay:10.37,2013-06-18 10:31:00,
2013-06-18 04:36:00,56.6,51.8,30.16,SSW,198,1.1,0.0,84,0.00,-RA,OVC,0.00,WeatherDisplay:10.37,2013-06-18 10:36:00,
2013-06-18 04:41:00,56.5,51.7,30.16,SSW,198,0.0,0.0,84,0.00,-RA,OVC,0.00,WeatherDisplay:10.37,2013-06-18 10:41:00,
2013-06-18 04:46:00,56.3,51.5,30.16,SSW,198,0.0,0.0,84,0.00,-RA,OVC,0.00,WeatherDisplay:10.37,2013-06-18 10:46:00,
2013-06-18 04:51:00,56.2,51.7,30.16,SSW,199,0.0,0.0,85,0.00,-RA,OVC,0.00,WeatherDisplay:10.37,2013-06-18 10:51:00,
2013-06-18 04:56:00,56.1,51.7,30.15,SSW,199,2.3,2.3,85,0.00,-RA,OVC,0.00,WeatherDisplay:10.37,2013-06-18 10:56:00,
2013-06-18 05:01:00,56.0,51.2,30.15,SSW,199,0.0,0.0,84,0.00,-RA,OVC,0.00,WeatherDisplay:10.37,2013-06-18 11:01:00,
2013-06-18 05:06:00,55.9,51.1,30.15,SSW,199,0.0,0.0,84,0.00,-RA,OVC,0.00,WeatherDisplay:10.37,2013-06-18 11:06:00,
2013-06-18 05:11:00,55.7,51.3,30.15,SSW,199,0.0,0.0,85,0.00,-RA,OVC,0.00,WeatherDisplay:10.37,2013-06-18 11:11:00,
2013-06-18 05:16:00,55.6,51.2,30.15,SSW,199,0.0,0.0,85,0.00,-RA,OVC,0.00,WeatherDisplay:10.37,2013-06-18 11:16:00,
2013-06-18 05:21:00,55.4,51.0,30.15,SSW,199,1.1,1.1,85,0.00,-RA,OVC,0.00,WeatherDisplay:10.37,2013-06-18 11:21:00,
2013-06-18 05:26:00,55.3,51.2,30.15,SSW,199,0.0,0.0,86,0.00,-RA,OVC,0.00,WeatherDisplay:10.37,2013-06-18 11:26:00,
2013-06-18 05:31:00,55.1,51.0,30.15,SSW,199,1.1,1.1,86,0.00,-RA,OVC,0.00,WeatherDisplay:10.37,2013-06-18 11:31:00,
2013-06-18 05:36:00,55.0,51.2,30.15,SSW,199,2.3,2.3,87,0.00,-RA,OVC,0.00,WeatherDisplay:10.37,2013-06-18 11:36:00,
2013-06-18 05:41:00,55.0,51.2,30.15,SSW,199,0.0,0.0,87,0.00,-RA,OVC,0.00,WeatherDisplay:10.37,2013-06-18 11:41:00,
2013-06-18 05:46:00,55.0,51.2,30.15,SSW,200,2.3,2.3,87,0.00,-RA,OVC,0.00,WeatherDisplay:10.37,2013-06-18 11:46:00,
2013-06-18 05:51:00,55.1,51.0,30.15,SSW,202,2.3,0.0,86,0.00,-RA,OVC,0.00,WeatherDisplay:10.37,2013-06-18 11:51:00,
2013-06-18 05:56:00,55.1,51.0,30.15,SSW,202,0.0,0.0,86,0.00,-RA,OVC,0.00,WeatherDisplay:10.37,2013-06-18 11:56:00,
2013-06-18 06:01:00,55.2,51.1,30.15,SSW,202,0.0,0.0,86,0.00,-RA,OVC,0.00,WeatherDisplay:10.37,2013-06-18 12:01:00,
2013-06-18 06:06:00,55.2,51.1,30.15,SSW,202,1.1,1.1,86,0.00,-RA,OVC,0.00,WeatherDisplay:10.37,2013-06-18 12:06:00,
2013-06-18 06:11:00,55.3,51.2,30.15,SSW,203,2.3,2.3,86,0.00,-RA,OVC,0.00,WeatherDisplay:10.37,2013-06-18 12:11:00,
2013-06-18 06:16:00,55.4,51.3,30.15,SSW,203,0.0,0.0,86,0.00,-RA,OVC,0.00,WeatherDisplay:10.37,2013-06-18 12:16:00,
2013-06-18 06:21:00,55.5,51.4,30.15,South,190,3.5,3.5,86,0.00,-RA,OVC,0.00,WeatherDisplay:10.37,2013-06-18 12:21:00,
2013-06-18 06:26:00,55.7,51.6,30.15,SSE,167,3.5,3.5,86,0.00,-RA,OVC,0.00,WeatherDisplay:10.37,2013-06-18 12:26:00,
2013-06-18 06:31:00,55.9,51.5,30.16,ESE,120,3.5,3.5,85,0.00,-RA,OVC,0.00,WeatherDisplay:10.37,2013-06-18 12:31:00,
2013-06-18 06:36:00,56.2,51.4,30.16,ESE,111,1.1,1.1,84,0.00,-RA,OVC,0.00,WeatherDisplay:10.37,2013-06-18 12:36:00,
2013-06-18 06:41:00,56.4,51.3,30.16,ESE,121,4.6,4.6,83,0.00,-RA,OVC,0.00,WeatherDisplay:10.37,2013-06-18 12:41:00,
2013-06-18 06:46:00,56.7,51.6,30.16,ESE,111,3.5,3.5,83,0.00,-RA,OVC,0.00,WeatherDisplay:10.37,2013-06-18 12:46:00,
2013-06-18 06:51:00,57.0,51.6,30.16,ESE,121,5.8,5.8,82,0.00,-RA,OVC,0.00,WeatherDisplay:10.37,2013-06-18 12:51:00,
2013-06-18 06:56:00,57.4,51.6,30.16,South,176,5.8,5.8,81,0.00,-RA,OVC,0.00,WeatherDisplay:10.37,2013-06-18 12:56:00,
2013-06-18 07:01:00,57.8,52.0,30.16,ESE,111,3.5,3.5,81,0.00,-RA,OVC,0.00,WeatherDisplay:10.37,2013-06-18 13:01:00,
2013-06-18 07:06:00,58.2,52.1,30.16,ESE,110,2.3,2.3,80,0.00,-RA,OVC,0.00,WeatherDisplay:10.37,2013-06-18 13:06:00,
2013-06-18 07:11:00,58.6,52.1,30.16,ESE,108,2.3,2.3,79,0.00,-RA,OVC,0.00,WeatherDisplay:10.37,2013-06-18 13:11:00,
2013-06-18 07:16:00,59.1,52.2,30.16,SSW,196,6.9,6.9,78,0.00,-RA,OVC,0.00,WeatherDisplay:10.37,2013-06-18 13:16:00,
2013-06-18 07:21:00,59.5,52.6,30.16,West,277,0.0,0.0,78,0.00,-RA,OVC,0.00,WeatherDisplay:10.37,2013-06-18 13:21:00,
2013-06-18 07:26:00,60.0,52.4,30.16,SSW,210,4.6,4.6,76,0.00,-RA,OVC,0.00,WeatherDisplay:10.37,2013-06-18 13:26:00,
2013-06-18 07:31:00,60.3,52.7,30.16,South,175,3.5,3.5,76,0.00,-RA,OVC,0.00,WeatherDisplay:10.37,2013-06-18 13:31:00,
2013-06-18 07:36:00,60.6,52.3,30.16,South,175,2.0,2.0,74,0.00,-RA,OVC,0.00,WeatherDisplay:10.37,2013-06-18 13:36:00,
2013-06-18 07:41:00,60.6,52.3,30.16,SSE,158,3.5,3.5,74,0.00,-RA,OVC,0.00,WeatherDisplay:10.37,2013-06-18 13:41:00,
2013-06-18 07:46:00,60.6,52.3,30.16,ESE,119,3.5,0.0,74,0.00,-RA,OVC,0.00,WeatherDisplay:10.37,2013-06-18 13:46:00,
2013-06-18 07:51:00,60.9,52.6,30.16,ESE,119,0.0,0.0,74,0.00,-RA,OVC,0.00,WeatherDisplay:10.37,2013-06-18 13:51:00,
2013-06-18 07:56:00,61.3,52.6,30.15,ESE,119,1.1,0.0,73,0.00,-RA,OVC,0.00,WeatherDisplay:10.37,2013-06-18 13:56:00,
2013-06-18 08:01:00,61.7,52.6,30.15,ESE,119,2.3,2.3,72,0.00,-RA,OVC,0.00,WeatherDisplay:10.37,2013-06-18 14:01:00,
2013-06-18 08:06:00,61.9,52.8,30.15,ESE,119,0.0,0.0,72,0.00,-RA,OVC,0.00,WeatherDisplay:10.37,2013-06-18 14:06:00,
2013-06-18 08:11:00,62.3,52.8,30.15,ESE,119,1.1,0.0,71,0.00,-RA,OVC,0.00,WeatherDisplay:10.37,2013-06-18 14:11:00,
2013-06-18 08:16:00,62.9,53.0,30.15,ESE,119,1.1,1.1,70,0.00,-RA,OVC,0.00,WeatherDisplay:10.37,2013-06-18 14:16:00,
2013-06-18 08:21:00,63.3,53.0,30.15,ESE,119,0.0,0.1,69,0.00,-RA,OVC,0.00,WeatherDisplay:10.37,2013-06-18 14:21:00,
2013-06-18 08:26:00,63.8,53.4,30.15,ESE,121,3.5,3.5,69,0.00,-RA,OVC,0.00,WeatherDisplay:10.37,2013-06-18 14:26:00,
2013-06-18 08:31:00,64.1,53.3,30.15,ESE,121,1.1,1.1,68,0.00,-RA,OVC,0.00,WeatherDisplay:10.37,2013-06-18 14:31:00,
2013-06-18 08:36:00,64.7,53.5,30.15,ESE,121,1.1,0.0,67,0.00,-RA,OVC,0.00,WeatherDisplay:10.37,2013-06-18 14:36:00,
2013-06-18 08:41:00,65.3,53.6,30.15,ESE,119,3.5,3.5,66,0.00,-RA,OVC,0.00,WeatherDisplay:10.37,2013-06-18 14:41:00,
2013-06-18 08:46:00,65.6,53.5,30.15,SE,125,0.0,0.1,65,0.00,-RA,OVC,0.00,WeatherDisplay:10.37,2013-06-18 14:46:00,
2013-06-18 08:51:00,65.9,53.4,30.15,SE,134,3.5,3.5,64,0.00,-RA,OVC,0.00,WeatherDisplay:10.37,2013-06-18 14:51:00,
2013-06-18 08:56:00,65.9,52.9,30.15,South,188,3.5,3.5,63,0.00,-RA,OVC,0.00,WeatherDisplay:10.37,2013-06-18 14:56:00,
2013-06-18 09:01:00,66.1,53.1,30.14,South,188,1.1,1.1,63,0.00,-RA,OVC,0.00,WeatherDisplay:10.37,2013-06-18 15:01:00,
2013-06-18 09:06:00,66.4,53.0,30.14,South,188,2.3,2.3,62,0.00,-RA,OVC,0.00,WeatherDisplay:10.37,2013-06-18 15:06:00,
2013-06-18 09:11:00,66.3,52.4,30.14,South,188,2.3,0.0,61,0.00,-RA,OVC,0.00,WeatherDisplay:10.37,2013-06-18 15:11:00,
2013-06-18 09:16:00,66.0,53.0,30.13,South,188,1.1,0.0,63,0.00,-RA,OVC,0.00,WeatherDisplay:10.37,2013-06-18 15:16:00,
2013-06-18 09:21:00,66.4,53.4,30.13,East,86,3.5,3.5,63,0.00,-RA,OVC,0.00,WeatherDisplay:10.37,2013-06-18 15:21:00,
2013-06-18 09:26:00,66.6,52.7,30.13,NNW,348,3.5,3.5,61,0.00,-RA,OVC,0.00,WeatherDisplay:10.37,2013-06-18 15:26:00,
2013-06-18 09:31:00,66.7,52.8,30.13,North,9,3.5,3.5,61,0.00,-RA,OVC,0.00,WeatherDisplay:10.37,2013-06-18 15:31:00,
2013-06-18 09:36:00,67.2,52.8,30.13,North,360,3.5,3.5,60,0.00,-RA,OVC,0.00,WeatherDisplay:10.37,2013-06-18 15:36:00,
2013-06-18 09:41:00,67.7,53.3,30.13,North,360,4.6,4.6,60,0.00,-RA,OVC,0.00,WeatherDisplay:10.37,2013-06-18 15:41:00,
2013-06-18 09:46:00,67.6,53.2,30.13,North,360,0.0,0.0,60,0.00,-RA,OVC,0.00,WeatherDisplay:10.37,2013-06-18 15:46:00,
2013-06-18 09:51:00,68.1,53.7,30.13,North,355,3.5,3.5,60,0.00,-RA,OVC,0.00,WeatherDisplay:10.37,2013-06-18 15:51:00,
2013-06-18 09:56:00,68.5,53.1,30.13,NNW,345,3.5,0.0,58,0.00,-RA,OVC,0.00,WeatherDisplay:10.37,2013-06-18 15:56:00,
2013-06-18 10:01:00,69.2,53.8,30.13,NNW,342,3.5,3.5,58,0.00,-RA,OVC,0.00,WeatherDisplay:10.37,2013-06-18 16:01:00,
2013-06-18 10:06:00,69.8,52.9,30.13,NNW,335,2.3,2.3,55,0.00,-RA,OVC,0.00,WeatherDisplay:10.37,2013-06-18 16:06:00,
2013-06-18 10:11:00,70.1,53.7,30.13,NNW,338,1.1,0.0,56,0.00,-RA,OVC,0.00,WeatherDisplay:10.37,2013-06-18 16:11:00,
2013-06-18 10:16:00,70.6,53.1,30.13,NW,314,3.5,3.5,54,0.00,-RA,OVC,0.00,WeatherDisplay:10.37,2013-06-18 16:16:00,
2013-06-18 10:21:00,71.1,52.6,30.13,NW,317,5.8,5.8,52,0.00,-RA,OVC,0.00,WeatherDisplay:10.37,2013-06-18 16:21:00,
2013-06-18 10:26:00,71.4,51.2,30.13,NW,319,2.3,2.3,49,0.00,-RA,OVC,0.00,WeatherDisplay:10.37,2013-06-18 16:26:00,
2013-06-18 10:31:00,71.5,52.4,30.13,NW,321,5.8,5.8,51,0.00,-RA,OVC,0.00,WeatherDisplay:10.37,2013-06-18 16:31:00,
2013-06-18 10:36:00,71.5,52.4,30.10,NNW,327,3.5,3.5,51,0.00,-RA,OVC,0.00,WeatherDisplay:10.37,2013-06-18 16:36:00,
2013-06-18 10:41:00,71.7,52.6,30.10,NW,315,3.0,3.0,51,0.00,-RA,OVC,0.00,WeatherDisplay:10.37,2013-06-18 16:41:00,
2013-06-18 10:46:00,71.9,52.8,30.10,NNW,327,2.3,0.0,51,0.00,-RA,OVC,0.00,WeatherDisplay:10.37,2013-06-18 16:46:00,
2013-06-18 10:51:00,72.3,52.1,30.10,NW,319,3.5,3.5,49,0.00,-RA,OVC,0.00,WeatherDisplay:10.37,2013-06-18 16:51:00,
2013-06-18 10:56:00,72.5,52.8,30.10,WNW,298,6.0,6.0,50,0.00,-RA,OVC,0.00,WeatherDisplay:10.37,2013-06-18 16:56:00,
2013-06-18 11:01:00,72.5,53.3,30.10,WNW,297,1.1,1.1,51,0.00,-RA,OVC,0.00,WeatherDisplay:10.37,2013-06-18 17:01:00,
2013-06-18 11:06:00,73.0,52.7,30.10,NNE,28,4.6,4.6,49,0.00,-RA,OVC,0.00,WeatherDisplay:10.37,2013-06-18 17:06:00,
2013-06-18 11:11:00,73.3,51.8,30.10,NNE,27,3.5,3.5,47,0.00,-RA,OVC,0.00,WeatherDisplay:10.37,2013-06-18 17:11:00,
2013-06-18 11:16:00,73.3,52.4,30.10,NNE,27,2.3,2.3,48,0.00,-RA,OVC,0.00,WeatherDisplay:10.37,2013-06-18 17:16:00,
2013-06-18 11:21:00,73.9,53.5,30.10,North,9,3.5,3.5,49,0.00,-RA,OVC,0.00,WeatherDisplay:10.37,2013-06-18 17:21:00,
2013-06-18 11:26:00,74.9,53.9,30.10,NNW,348,1.1,1.1,48,0.00,-RA,OVC,0.00,WeatherDisplay:10.37,2013-06-18 17:26:00,
2013-06-18 11:31:00,75.7,52.2,30.10,NNW,334,3.5,3.5,44,0.00,-RA,OVC,0.00,WeatherDisplay:10.37,2013-06-18 17:31:00,
2013-06-18 11:36:00,75.5,53.3,30.10,North,360,3.5,3.5,46,0.00,-RA,OVC,0.00,WeatherDisplay:10.37,2013-06-18 17:36:00,
2013-06-18 11:41:00,75.6,53.9,30.10,North,360,3.5,3.5,47,0.00,-RA,OVC,0.00,WeatherDisplay:10.37,2013-06-18 17:41:00,
2013-06-18 11:46:00,76.1,53.8,30.10,East,84,3.5,3.5,46,0.00,-RA,OVC,0.00,WeatherDisplay:10.37,2013-06-18 17:46:00,
2013-06-18 11:51:00,76.7,54.4,30.10,SSW,209,3.0,3.0,46,0.00,-RA,OVC,0.00,WeatherDisplay:10.37,2013-06-18 17:51:00,
2013-06-18 11:56:00,76.8,53.2,30.07,WSW,248,3.5,3.5,44,0.00,-RA,OVC,0.00,WeatherDisplay:10.37,2013-06-18 17:56:00,
2013-06-18 12:01:00,76.7,52.5,30.07,WSW,250,2.3,2.3,43,0.00,-RA,OVC,0.00,WeatherDisplay:10.37,2013-06-18 18:01:00,
2013-06-18 12:06:00,76.9,53.9,30.07,SW,232,2.3,0.0,45,0.00,-RA,OVC,0.00,WeatherDisplay:10.37,2013-06-18 18:06:00,
2013-06-18 12:11:00,77.2,53.0,30.07,SSW,209,4.6,4.6,43,0.00,-RA,OVC,0.00,WeatherDisplay:10.37,2013-06-18 18:11:00,
2013-06-18 12:16:00,77.8,54.1,30.07,SSW,213,3.5,3.5,44,0.00,-RA,OVC,0.00,WeatherDisplay:10.37,2013-06-18 18:16:00,
2013-06-18 12:21:00,78.8,53.8,30.07,SW,214,2.3,0.0,42,0.00,-RA,OVC,0.00,WeatherDisplay:10.37,2013-06-18 18:21:00,
2013-06-18 12:26:00,78.8,53.1,30.07,SW,216,1.1,0.0,41,0.00,-RA,OVC,0.00,WeatherDisplay:10.37,2013-06-18 18:26:00,
2013-06-18 12:31:00,79.2,54.8,30.07,SSW,195,2.3,2.3,43,0.00,-RA,OVC,0.00,WeatherDisplay:10.37,2013-06-18 18:31:00,
2013-06-18 12:36:00,79.8,54.7,30.05,SSW,192,5.8,5.8,42,0.00,-RA,OVC,0.00,WeatherDisplay:10.37,2013-06-18 18:36:00,
2013-06-18 12:41:00,79.8,54.0,30.05,SSW,198,5.0,5.0,41,0.00,-RA,OVC,0.00,WeatherDisplay:10.37,2013-06-18 18:41:00,
2013-06-18 12:46:00,78.9,53.9,30.05,South,175,5.8,5.8,42,0.00,-RA,OVC,0.00,WeatherDisplay:10.37,2013-06-18 18:46:00,
2013-06-18 12:51:00,77.2,53.0,30.05,South,183,11.5,11.5,43,0.00,-RA,OVC,0.00,WeatherDisplay:10.37,2013-06-18 18:51:00,
2013-06-18 12:56:00,75.5,52.7,30.05,SE,142,10.4,10.4,45,0.00,-RA,OVC,0.00,WeatherDisplay:10.37,2013-06-18 18:56:00,
2013-06-18 13:01:00,74.3,52.8,30.05,ESE,117,6.9,6.9,47,0.00,-RA,OVC,0.00,WeatherDisplay:10.37,2013-06-18 19:01:00,
2013-06-18 13:06:00,73.3,53.0,30.05,South,180,5.8,5.8,49,0.00,-RA,OVC,0.00,WeatherDisplay:10.37,2013-06-18 19:06:00,
2013-06-18 13:11:00,72.4,52.2,30.05,ESE,106,11.5,11.5,49,0.00,-RA,OVC,0.00,WeatherDisplay:10.37,2013-06-18 19:11:00,
2013-06-18 13:16:00,71.8,52.2,30.05,SSE,150,15.0,15.0,50,0.00,-RA,OVC,0.00,WeatherDisplay:10.37,2013-06-18 19:16:00,
2013-06-18 13:21:00,71.6,52.0,30.05,ESE,117,11.5,11.5,50,0.00,-RA,OVC,0.00,WeatherDisplay:10.37,2013-06-18 19:21:00,
2013-06-18 13:26:00,71.7,51.5,30.05,ESE,121,11.5,11.5,49,0.00,-RA,OVC,0.00,WeatherDisplay:10.37,2013-06-18 19:26:00,
2013-06-18 13:31:00,71.7,52.6,30.05,ESE,119,6.9,6.9,51,0.00,-RA,OVC,0.00,WeatherDisplay:10.37,2013-06-18 19:31:00,
2013-06-18 13:36:00,71.6,52.5,30.05,SW,232,11.5,11.5,51,0.00,-RA,OVC,0.00,WeatherDisplay:10.37,2013-06-18 19:36:00,
2013-06-18 13:41:00,71.7,47.4,30.05,ESE,109,11.5,11.5,42,0.00,-RA,OVC,0.00,WeatherDisplay:10.37,2013-06-18 19:41:00,
2013-06-18 13:46:00,74.8,43.0,30.05,SE,126,24.2,24.2,32,0.00,-RA,OVC,0.00,WeatherDisplay:10.37,2013-06-18 19:46:00,
2013-06-18 13:51:00,75.6,43.7,30.05,SE,138,9.2,9.2,32,0.00,-RA,OVC,0.00,WeatherDisplay:10.37,2013-06-18 19:51:00,
2013-06-18 13:56:00,75.7,41.2,30.05,SE,145,4.6,4.6,29,0.00,-RA,OVC,0.00,WeatherDisplay:10.37,2013-06-18 19:56:00,
2013-06-18 14:01:00,76.0,44.8,30.05,NNW,328,10.4,10.4,33,0.00,-RA,OVC,0.00,WeatherDisplay:10.37,2013-06-18 20:01:00,
2013-06-18 14:06:00,76.5,45.2,30.05,WSW,250,4.6,4.6,33,0.00,-RA,OVC,0.00,WeatherDisplay:10.37,2013-06-18 20:06:00,
2013-06-18 14:11:00,77.1,44.1,30.05,WSW,253,3.5,3.5,31,0.00,-RA,OVC,0.00,WeatherDisplay:10.37,2013-06-18 20:11:00,
2013-06-18 14:16:00,77.8,43.9,30.05,WSW,258,0.0,0.0,30,0.00,-RA,OVC,0.00,WeatherDisplay:10.37,2013-06-18 20:16:00,
2013-06-18 14:21:00,78.6,46.3,30.05,WSW,257,2.3,2.3,32,0.00,-RA,OVC,0.00,WeatherDisplay:10.37,2013-06-18 20:21:00,
2013-06-18 14:26:00,79.3,43.4,30.05,West,259,1.1,1.1,28,0.00,-RA,OVC,0.00,WeatherDisplay:10.37,2013-06-18 20:26:00,
2013-06-18 14:31:00,80.3,41.3,30.05,West,259,1.1,1.1,25,0.00,-RA,OVC,0.00,WeatherDisplay:10.37,2013-06-18 20:31:00,
2013-06-18 14:36:00,81.1,41.9,30.05,South,186,1.1,1.1,25,0.00,-RA,OVC,0.00,WeatherDisplay:10.37,2013-06-18 20:36:00,
2013-06-18 14:41:00,82.3,41.9,30.05,South,186,1.1,1.1,24,0.00,-RA,OVC,0.00,WeatherDisplay:10.37,2013-06-18 20:41:00,
2013-06-18 14:46:00,83.4,40.6,30.05,SW,228,4.6,4.6,22,0.00,-RA,OVC,0.00,WeatherDisplay:10.37,2013-06-18 20:46:00,
2013-06-18 14:51:00,83.7,40.8,30.05,SW,228,1.1,1.1,22,0.00,-RA,OVC,0.00,WeatherDisplay:10.37,2013-06-18 20:51:00,
2013-06-18 14:56:00,84.3,42.5,30.05,NW,323,2.3,2.3,23,0.00,-RA,OVC,0.00,WeatherDisplay:10.37,2013-06-18 20:56:00,
2013-06-18 15:01:00,85.1,43.1,30.05,West,264,6.9,6.9,23,0.00,-RA,OVC,0.00,WeatherDisplay:10.37,2013-06-18 21:01:00,
2013-06-18 15:06:00,84.3,44.6,30.05,West,267,0.0,0.0,25,0.00,-RA,OVC,0.00,WeatherDisplay:10.37,2013-06-18 21:06:00,
2013-06-18 15:11:00,83.8,45.3,30.05,West,267,1.1,1.1,26,0.00,-RA,OVC,0.00,WeatherDisplay:10.37,2013-06-18 21:11:00,
2013-06-18 15:16:00,83.1,44.7,30.05,West,269,2.3,2.3,26,0.00,-RA,OVC,0.00,WeatherDisplay:10.37,2013-06-18 21:16:00,
2013-06-18 15:21:00,82.4,46.0,30.05,West,269,1.1,1.1,28,0.00,-RA,OVC,0.00,WeatherDisplay:10.37,2013-06-18 21:21:00,
2013-06-18 15:26:00,82.0,48.4,30.05,West,259,3.5,3.5,31,0.00,-RA,OVC,0.00,WeatherDisplay:10.37,2013-06-18 21:26:00,
2013-06-18 15:31:00,81.9,50.8,30.05,South,191,4.6,4.6,34,0.00,-RA,OVC,0.00,WeatherDisplay:10.37,2013-06-18 21:31:00,
2013-06-18 15:36:00,81.8,53.0,30.05,SSW,211,3.0,3.0,37,0.00,-RA,OVC,0.00,WeatherDisplay:10.37,2013-06-18 21:36:00,
2013-06-18 15:41:00,81.6,51.3,30.05,SW,232,6.9,6.9,35,0.00,-RA,OVC,0.00,WeatherDisplay:10.37,2013-06-18 21:41:00,
2013-06-18 15:46:00,81.6,50.5,30.05,SW,217,3.5,3.5,34,0.00,-RA,OVC,0.00,WeatherDisplay:10.37,2013-06-18 21:46:00,
2013-06-18 15:51:00,81.6,50.5,30.05,SSW,209,4.6,4.6,34,0.00,-RA,OVC,0.00,WeatherDisplay:10.37,2013-06-18 21:51:00,
2013-06-18 15:56:00,81.1,50.1,30.00,East,101,9.2,9.2,34,0.00,-RA,OVC,0.00,WeatherDisplay:10.37,2013-06-18 21:56:00,
2013-06-18 16:01:00,81.0,49.2,30.00,SSW,196,4.6,4.6,33,0.00,-RA,OVC,0.00,WeatherDisplay:10.37,2013-06-18 22:01:00,
2013-06-18 16:06:00,81.0,49.2,30.00,ESE,120,4.6,4.6,33,0.00,-RA,OVC,0.00,WeatherDisplay:10.37,2013-06-18 22:06:00,
2013-06-18 16:11:00,81.0,50.0,30.00,SSE,148,8.1,8.1,34,0.00,-RA,OVC,0.00,WeatherDisplay:10.37,2013-06-18 22:11:00,
2013-06-18 16:16:00,81.3,51.0,30.00,South,191,1.1,1.1,35,0.00,-RA,OVC,0.00,WeatherDisplay:10.37,2013-06-18 22:16:00,
2013-06-18 16:21:00,81.0,50.0,30.00,South,188,3.5,3.5,34,0.00,-RA,OVC,0.00,WeatherDisplay:10.37,2013-06-18 22:21:00,
2013-06-18 16:26:00,80.7,50.5,30.00,SSW,193,2.3,2.3,35,0.00,-RA,OVC,0.00,WeatherDisplay:10.37,2013-06-18 22:26:00,
2013-06-18 16:31:00,81.0,50.0,30.00,SSE,154,1.1,1.1,34,0.00,-RA,OVC,0.00,WeatherDisplay:10.37,2013-06-18 22:31:00,
2013-06-18 16:36:00,81.2,50.2,30.00,West,266,1.1,1.1,34,0.00,-RA,OVC,0.00,WeatherDisplay:10.37,2013-06-18 22:36:00,
2013-06-18 16:41:00,81.9,50.0,30.00,South,169,3.5,3.5,33,0.00,-RA,OVC,0.00,WeatherDisplay:10.37,2013-06-18 22:41:00,
2013-06-18 16:46:00,82.3,49.5,30.00,SSW,194,3.5,3.5,32,0.00,-RA,OVC,0.00,WeatherDisplay:10.37,2013-06-18 22:46:00,
2013-06-18 16:51:00,82.6,49.7,30.00,SSW,192,3.5,3.5,32,0.00,-RA,OVC,0.00,WeatherDisplay:10.37,2013-06-18 22:51:00,
2013-06-18 16:56:00,82.8,48.2,30.00,SW,221,3.5,3.5,30,0.00,-RA,OVC,0.00,WeatherDisplay:10.37,2013-06-18 22:56:00,
2013-06-18 17:01:00,83.2,47.6,30.00,SW,222,3.5,3.5,29,0.00,-RA,OVC,0.00,WeatherDisplay:10.37,2013-06-18 23:01:00,
2013-06-18 17:06:00,83.6,48.9,30.00,SW,214,1.1,1.1,30,0.00,-RA,OVC,0.00,WeatherDisplay:10.37,2013-06-18 23:06:00,
2013-06-18 17:11:00,83.9,47.3,30.00,NW,309,2.3,2.3,28,0.00,-RA,OVC,0.00,WeatherDisplay:10.37,2013-06-18 23:11:00,
2013-06-18 17:16:00,84.1,47.5,29.97,WNW,288,3.5,3.5,28,0.00,-RA,OVC,0.00,WeatherDisplay:10.37,2013-06-18 23:16:00,
2013-06-18 17:21:00,84.0,47.4,29.97,WNW,284,2.3,2.3,28,0.00,-RA,OVC,0.00,WeatherDisplay:10.37,2013-06-18 23:21:00,
2013-06-18 17:26:00,84.1,47.5,29.97,WNW,284,3.5,3.5,28,0.00,-RA,OVC,0.00,WeatherDisplay:10.37,2013-06-18 23:26:00,
2013-06-18 17:31:00,84.1,47.5,29.97,WNW,284,1.1,1.1,28,0.00,-RA,OVC,0.00,WeatherDisplay:10.37,2013-06-18 23:31:00,
2013-06-18 17:36:00,83.6,46.1,29.97,West,277,3.5,3.5,27,0.00,-RA,OVC,0.00,WeatherDisplay:10.37,2013-06-18 23:36:00,
2013-06-18 17:41:00,83.0,45.6,29.97,NW,308,3.5,3.5,27,0.00,-RA,OVC,0.00,WeatherDisplay:10.37,2013-06-18 23:41:00,
2013-06-18 17:46:00,82.8,44.4,29.97,WSW,257,3.5,3.5,26,0.00,-RA,OVC,0.00,WeatherDisplay:10.37,2013-06-18 23:46:00,
2013-06-18 17:51:00,82.7,44.3,29.97,West,262,4.6,4.6,26,0.00,-RA,OVC,0.00,WeatherDisplay:10.37,2013-06-18 23:51:00,
2013-06-18 17:56:00,82.7,44.3,29.97,West,261,3.5,3.5,26,0.00,-RA,OVC,0.00,WeatherDisplay:10.37,2013-06-18 23:56:00,
2013-06-18 18:01:00,82.7,44.3,29.97,West,261,1.1,1.1,26,0.00,-RA,OVC,0.00,WeatherDisplay:10.37,2013-06-19 00:01:00,
2013-06-18 18:06:00,83.0,44.6,29.97,WNW,284,19.6,19.6,26,0.00,-RA,OVC,0.00,WeatherDisplay:10.37,2013-06-19 00:06:00,
2013-06-18 18:11:00,82.6,45.2,29.97,WNW,298,8.1,8.1,27,0.00,-RA,OVC,0.00,WeatherDisplay:10.37,2013-06-19 00:11:00,
2013-06-18 18:16:00,82.3,45.9,29.97,NW,317,6.9,6.9,28,0.00,-RA,OVC,0.00,WeatherDisplay:10.37,2013-06-19 00:16:00,
2013-06-18 18:21:00,82.0,47.5,29.97,North,360,9.2,9.2,30,0.00,-RA,OVC,0.00,WeatherDisplay:10.37,2013-06-19 00:21:00,
2013-06-18 18:26:00,80.6,51.9,29.97,NNW,331,11.5,11.5,37,0.00,-RA,OVC,0.00,WeatherDisplay:10.37,2013-06-19 00:26:00,
2013-06-18 18:31:00,79.0,50.5,29.97,NW,306,10.4,10.4,37,0.00,-RA,OVC,0.00,WeatherDisplay:10.37,2013-06-19 00:31:00,
2013-06-18 18:36:00,77.3,50.4,29.97,NNE,15,12.7,12.7,39,0.00,-RA,OVC,0.00,WeatherDisplay:10.37,2013-06-19 00:36:00,
2013-06-18 18:41:00,76.5,50.4,29.97,NNE,15,11.5,11.5,40,0.00,-RA,OVC,0.00,WeatherDisplay:10.37,2013-06-19 00:41:00,
2013-06-18 18:46:00,76.2,50.1,29.97,NNE,12,11.5,11.5,40,0.00,-RA,OVC,0.00,WeatherDisplay:10.37,2013-06-19 00:46:00,
2013-06-18 18:51:00,75.8,50.4,29.97,ENE,57,13.8,13.8,41,0.00,-RA,OVC,0.00,WeatherDisplay:10.37,2013-06-19 00:51:00,
2013-06-18 18:56:00,75.2,51.2,29.97,NNW,332,8.1,8.1,43,0.00,-RA,OVC,0.00,WeatherDisplay:10.37,2013-06-19 00:56:00,
2013-06-18 19:01:00,74.6,51.2,29.97,North,11,9.2,9.2,44,0.00,-RA,OVC,0.00,WeatherDisplay:10.37,2013-06-19 01:01:00,
2013-06-18 19:06:00,74.2,51.5,29.97,NNW,348,5.8,5.8,45,0.00,-RA,OVC,0.00,WeatherDisplay:10.37,2013-06-19 01:06:00,
2013-06-18 19:11:00,74.0,51.3,29.97,NNE,15,11.5,11.5,45,0.00,-RA,OVC,0.00,WeatherDisplay:10.37,2013-06-19 01:11:00,
2013-06-18 19:16:00,73.8,51.1,29.97,NE,46,4.6,4.6,45,0.00,-RA,OVC,0.00,WeatherDisplay:10.37,2013-06-19 01:16:00,
2013-06-18 19:21:00,73.6,50.9,29.97,NE,53,4.0,4.0,45,0.00,-RA,OVC,0.00,WeatherDisplay:10.37,2013-06-19 01:21:00,
2013-06-18 19:26:00,73.3,51.3,29.97,NNE,16,9.2,9.2,46,0.00,-RA,OVC,0.00,WeatherDisplay:10.37,2013-06-19 01:26:00,
2013-06-18 19:31:00,72.9,51.5,29.97,North,355,9.2,9.2,47,0.00,-RA,OVC,0.00,WeatherDisplay:10.37,2013-06-19 01:31:00,
2013-06-18 19:36:00,72.5,51.1,29.97,NNE,24,2.3,2.3,47,0.00,-RA,OVC,0.00,WeatherDisplay:10.37,2013-06-19 01:36:00,
2013-06-18 19:41:00,72.1,50.2,29.97,NNW,337,4.6,4.6,46,0.00,-RA,OVC,0.00,WeatherDisplay:10.37,2013-06-19 01:41:00,
2013-06-18 19:46:00,71.7,50.4,29.97,North,5,2.3,2.3,47,0.00,-RA,OVC,0.00,WeatherDisplay:10.37,2013-06-19 01:46:00,
2013-06-18 19:51:00,71.4,50.7,29.97,North,5,1.1,0.0,48,0.00,-RA,OVC,0.00,WeatherDisplay:10.37,2013-06-19 01:51:00,
2013-06-18 19:56:00,71.1,49.8,29.97,North,5,3.5,3.5,47,0.00,-RA,OVC,0.00,WeatherDisplay:10.37,2013-06-19 01:56:00,
2013-06-18 20:01:00,70.9,50.2,29.97,North,360,1.1,1.1,48,0.00,-RA,OVC,0.00,WeatherDisplay:10.37,2013-06-19 02:01:00,
2013-06-18 20:06:00,70.7,50.0,29.97,North,360,0.0,0.0,48,0.00,-RA,OVC,0.00,WeatherDisplay:10.37,2013-06-19 02:06:00,
2013-06-18 20:11:00,70.5,49.9,29.97,North,360,0.0,0.1,48,0.00,-RA,OVC,0.00,WeatherDisplay:10.37,2013-06-19 02:11:00,
2013-06-18 20:16:00,70.3,49.7,29.97,NNE,19,3.5,3.5,48,0.00,-RA,OVC,0.00,WeatherDisplay:10.37,2013-06-19 02:16:00,
2013-06-18 20:21:00,70.1,49.5,29.97,NNE,22,3.5,3.5,48,0.00,-RA,OVC,0.00,WeatherDisplay:10.37,2013-06-19 02:21:00,
2013-06-18 20:26:00,70.1,49.5,29.97,NNW,333,3.5,3.5,48,0.00,-RA,OVC,0.00,WeatherDisplay:10.37,2013-06-19 02:26:00,
2013-06-18 20:31:00,70.1,49.5,29.97,North,5,6.9,6.9,48,0.00,-RA,OVC,0.00,WeatherDisplay:10.37,2013-06-19 02:31:00,
2013-06-18 20:36:00,70.0,49.4,29.97,NNW,348,9.2,9.2,48,0.00,-RA,OVC,0.00,WeatherDisplay:10.37,2013-06-19 02:36:00,
2013-06-18 20:41:00,69.9,49.9,29.97,NNW,342,1.1,1.1,49,0.00,-RA,OVC,0.00,WeatherDisplay:10.37,2013-06-19 02:41:00,
2013-06-18 20:46:00,69.8,50.3,29.97,NW,326,4.6,4.6,50,0.00,-RA,OVC,0.00,WeatherDisplay:10.37,2013-06-19 02:46:00,
2013-06-18 20:51:00,69.6,50.7,29.97,NNW,329,2.3,2.3,51,0.00,-RA,OVC,0.00,WeatherDisplay:10.37,2013-06-19 02:51:00,
2013-06-18 20:56:00,69.4,51.0,29.97,NNW,327,3.5,3.5,52,0.00,-RA,OVC,0.00,WeatherDisplay:10.37,2013-06-19 02:56:00,
2013-06-18 21:01:00,69.2,50.8,29.97,NNW,331,0.0,0.0,52,0.00,-RA,OVC,0.00,WeatherDisplay:10.37,2013-06-19 03:01:00,
2013-06-18 21:06:00,69.1,50.7,29.97,NNW,331,1.1,1.1,52,0.00,-RA,OVC,0.00,WeatherDisplay:10.37,2013-06-19 03:06:00,
2013-06-18 21:11:00,69.0,50.6,29.97,NNW,331,1.1,1.1,52,0.00,-RA,OVC,0.00,WeatherDisplay:10.37,2013-06-19 03:11:00,
2013-06-18 21:16:00,68.8,50.5,29.97,NNW,331,1.1,0.0,52,0.00,-RA,OVC,0.00,WeatherDisplay:10.37,2013-06-19 03:16:00,
2013-06-18 21:21:00,68.7,49.8,29.97,WNW,298,3.5,3.5,51,0.00,-RA,OVC,0.00,WeatherDisplay:10.37,2013-06-19 03:21:00,
2013-06-18 21:26:00,68.6,49.7,29.97,WNW,297,0.0,0.0,51,0.00,-RA,OVC,0.00,WeatherDisplay:10.37,2013-06-19 03:26:00,
2013-06-18 21:31:00,68.6,49.7,29.97,WNW,297,1.1,0.0,51,0.00,-RA,OVC,0.00,WeatherDisplay:10.37,2013-06-19 03:31:00,
2013-06-18 21:36:00,68.5,49.7,29.97,WNW,297,0.0,0.0,51,0.00,-RA,OVC,0.00,WeatherDisplay:10.37,2013-06-19 03:36:00,
2013-06-18 21:41:00,68.6,49.7,29.97,WNW,297,0.0,0.0,51,0.00,-RA,OVC,0.00,WeatherDisplay:10.37,2013-06-19 03:41:00,
2013-06-18 21:46:00,68.6,50.3,29.97,WNW,290,3.5,3.5,52,0.00,-RA,OVC,0.00,WeatherDisplay:10.37,2013-06-19 03:46:00,
2013-06-18 21:51:00,68.7,50.4,29.97,SSE,166,0.0,0.0,52,0.00,-RA,OVC,0.00,WeatherDisplay:10.37,2013-06-19 03:51:00,
2013-06-18 21:56:00,68.7,50.9,29.99,SSE,166,1.1,1.1,53,0.00,-RA,OVC,0.00,WeatherDisplay:10.37,2013-06-19 03:56:00,
2013-06-18 22:01:00,68.6,50.3,29.99,South,169,1.1,1.1,52,0.00,-RA,OVC,0.00,WeatherDisplay:10.37,2013-06-19 04:01:00,
2013-06-18 22:06:00,68.4,50.1,29.99,SSE,161,2.3,2.3,52,0.00,-RA,OVC,0.00,WeatherDisplay:10.37,2013-06-19 04:06:00,
2013-06-18 22:11:00,68.3,50.5,29.99,SSE,161,2.3,2.3,53,0.00,-RA,OVC,0.00,WeatherDisplay:10.37,2013-06-19 04:11:00,
2013-06-18 22:16:00,68.2,50.4,29.99,SSE,161,2.3,0.0,53,0.00,-RA,OVC,0.00,WeatherDisplay:10.37,2013-06-19 04:16:00,
2013-06-18 22:21:00,68.0,50.2,29.99,SSE,163,3.5,3.5,53,0.00,-RA,OVC,0.00,WeatherDisplay:10.37,2013-06-19 04:21:00,
2013-06-18 22:26:00,67.9,49.6,29.99,West,280,3.5,3.5,52,0.00,-RA,OVC,0.00,WeatherDisplay:10.37,2013-06-19 04:26:00,
2013-06-18 22:31:00,67.7,49.4,29.99,West,280,0.0,0.0,52,0.00,-RA,OVC,0.00,WeatherDisplay:10.37,2013-06-19 04:31:00,
2013-06-18 22:36:00,67.6,48.8,29.99,ENE,67,5.0,5.0,51,0.00,-RA,OVC,0.00,WeatherDisplay:10.37,2013-06-19 04:36:00,
2013-06-18 22:41:00,67.7,48.9,29.99,NE,52,1.1,1.1,51,0.00,-RA,OVC,0.00,WeatherDisplay:10.37,2013-06-19 04:41:00,
2013-06-18 22:46:00,67.7,48.9,29.99,NE,52,0.0,0.0,51,0.00,-RA,OVC,0.00,WeatherDisplay:10.37,2013-06-19 04:46:00,
2013-06-18 22:51:00,67.6,48.3,29.99,NE,52,1.1,0.0,50,0.00,-RA,OVC,0.00,WeatherDisplay:10.37,2013-06-19 04:51:00,
2013-06-18 22:56:00,67.5,48.2,29.99,NE,49,0.0,0.0,50,0.00,-RA,OVC,0.00,WeatherDisplay:10.37,2013-06-19 04:56:00,
2013-06-18 23:01:00,67.4,47.6,29.99,NE,49,0.0,0.1,49,0.00,-RA,OVC,0.00,WeatherDisplay:10.37,2013-06-19 05:01:00,
2013-06-18 23:06:00,67.4,47.6,29.99,NE,49,1.1,0.0,49,0.00,-RA,OVC,0.00,WeatherDisplay:10.37,2013-06-19 05:06:00,
2013-06-18 23:11:00,67.3,47.5,29.99,NE,49,3.5,3.5,49,0.00,-RA,OVC,0.00,WeatherDisplay:10.37,2013-06-19 05:11:00,
2013-06-18 23:16:00,67.3,46.9,29.99,NE,40,0.0,1.0,48,0.00,-RA,OVC,0.00,WeatherDisplay:10.37,2013-06-19 05:16:00,
2013-06-18 23:21:00,67.2,46.8,29.99,NE,41,3.5,3.5,48,0.00,-RA,OVC,0.00,WeatherDisplay:10.37,2013-06-19 05:21:00,
2013-06-18 23:26:00,67.2,47.4,29.99,NE,41,0.0,0.0,49,0.00,-RA,OVC,0.00,WeatherDisplay:10.37,2013-06-19 05:26:00,
2013-06-18 23:31:00,67.0,47.2,29.99,NE,41,0.0,0.0,49,0.00,-RA,OVC,0.00,WeatherDisplay:10.37,2013-06-19 05:31:00,
2013-06-18 23:36:00,66.7,46.9,29.99,NE,41,0.0,0.0,49,0.00,-RA,OVC,0.00,WeatherDisplay:10.37,2013-06-19 05:36:00,
2013-06-18 23:41:00,66.3,47.1,29.99,NE,41,0.0,0.0,50,0.00,-RA,OVC,0.00,WeatherDisplay:10.37,2013-06-19 05:41:00,
2013-06-18 23:46:00,65.9,47.3,29.99,NE,41,0.0,0.0,51,0.00,-RA,OVC,0.00,WeatherDisplay:10.37,2013-06-19 05:46:00,
2013-06-18 23:51:00,65.4,47.3,29.99,NE,41,0.0,0.0,52,0.00,-RA,OVC,0.00,WeatherDisplay:10.37,2013-06-19 05:51:00,
2013-06-18 23:56:00,65.0,47.4,29.99,NE,41,0.0,0.0,53,0.00,-RA,OVC,0.00,WeatherDisplay:10.37,2013-06-19 05:56:00,